Voltar ao catálogo

STARLINK-30768

AtivoComunicaçõesVLEO
NORAD 58120·PAYLOAD·🇺🇸 United States

Lançado Oct 22, 2023 de Cape Canaveral Space Force Station

Loading…

Próximas Passagens (próximas 24 horas)

TLE

AtualizadoSource: CelesTrak SupGP

Época: Sep 14, 2026, 20:39 UTC

1 58120C 23162C   26257.86090278 -.00029282  00000+0 -10619-2 0  2572
2 58120  43.0017 143.8007 0001316 258.5880  65.0208 15.27552151    19

Acompanhe STARLINK-30768 em tempo real com AllMySat

Download on the App Store